Weather reports worldwide

Advertisment
Skillinge, Sweden (2625): temperature & dewpoint: 05.07.2020 16:00:00 - 11.07.2020 16:00:00 (CEST)Skillinge, Sweden (2625): wind speed & gusts: 05.07.2020 16:00:00 - 11.07.2020 16:00:00 (CEST)Skillinge, Sweden (2625): wind direction: 05.07.2020 16:00:00 - 11.07.2020 16:00:00 (CEST)Skillinge, Sweden (2625): reduced air pressure: 05.07.2020 16:00:00 - 11.07.2020 16:00:00 (CEST)Skillinge, Sweden (2625): visibility: 05.07.2020 16:00:00 - 11.07.2020 16:00:00 (CEST)Skillinge, Sweden (2625): precipitation: 05.07.2020 16:00:00 - 11.07.2020 16:00:00 (CEST)
Date & Time tt [°C] td [°C] ff [km/h] ff [kn] fx [km/h] fx [kn] dd ppp [hPa] vv [km] rr [mm]
11.07.2020 16:00:00 16,8 8,2 23 12 41 22 WSW 1018,6 49 0,0
11.07.2020 15:00:00 17,2 8,1 10 5 30 16 W 1018,1 49 0,0
11.07.2020 14:00:00 17,6 7,9 17 9 39 21 W 1017,8 41 0,0
11.07.2020 13:00:00 17,8 7,8 17 9 37 20 W 1017,6 40 0,0
11.07.2020 12:00:00 17,4 6,9 18 10 32 18 W 1017,2 36 0,0
11.07.2020 11:00:00 17,3 7,9 16 9 33 18 W 1016,5 36 0,0
11.07.2020 10:00:00 15,1 8,6 19 10 34 19 W 1015,9 33 0,0
11.07.2020 09:00:00 14,6 9,4 18 10 38 20 W 1015,1 27 0,0
11.07.2020 08:00:00 13,9 9,9 18 10 36 19 W 1014,2 28 0,0
11.07.2020 07:00:00 12,5 10,2 16 9 28 15 WSW 1013,7 33 0,0
11.07.2020 06:00:00 11,1 9,5 14 7 25 13 WSW 1013,0 42 0,0
11.07.2020 05:00:00 9,9 8,8 14 8 24 13 W 1012,3 36 0,0
11.07.2020 04:00:00 10,1 8,7 11 6 18 10 W 1012,0 38 0,0
11.07.2020 03:00:00 10,2 8,6 11 6 22 12 WSW 1011,9 41 0,0
11.07.2020 02:00:00 10,2 8,8 11 6 20 11 WSW 1011,4 48 0,0
11.07.2020 01:00:00 10,1 8,7 10 5 22 12 W 1010,8 47 0,0
11.07.2020 00:00:00 10,1 9,0 10 5 16 9 WSW 1010,4 49 0,0
10.07.2020 23:00:00 9,5 8,5 7 4 15 8 W 1010,0 50 0,0
10.07.2020 22:00:00 10,2 9,0 9 5 20 11 W 1009,8 50 0,0
10.07.2020 21:00:00 11,8 9,5 8 5 26 14 W 1009,0 50 0,0
10.07.2020 20:00:00 12,2 10,3 11 6 24 13 W 1009,0 50 0,0
10.07.2020 19:00:00 12,1 10,3 4 2 18 10 NW 1008,1 19 0,0
10.07.2020 18:00:00 11,4 10,1 6 4 15 8 NW 1007,6 50 0,2
10.07.2020 17:00:00 11,6 10,4 5 3 21 11 N 1007,2 11 0,2
10.07.2020 16:00:00 12,1 11,0 8 4 16 9 N 1007,4 8 2,4
10.07.2020 15:00:00 13,0 11,4 9 5 14 8 NNE 1007,2 10 2,2
10.07.2020 14:00:00 13,7 11,6 6 3 12 7 NNE 1007,5 9 1,3
10.07.2020 13:00:00 14,4 11,4 10 6 19 11 ENE 1007,7 42 0,0
10.07.2020 12:00:00 14,7 11,5 11 6 16 8 ENE 1008,0 30 0,0
10.07.2020 11:00:00 14,2 10,9 10 6 16 8 ENE 1008,7 36 0,0
10.07.2020 10:00:00 14,1 11,1 9 5 16 9 NE 1008,9 40 0,0
10.07.2020 09:00:00 14,5 10,5 9 5 16 9 NE 1009,3 38 0,0
10.07.2020 08:00:00 13,7 10,1 7 4 12 7 N 1009,2 34 0,0
10.07.2020 07:00:00 11,9 10,3 2 1 7 4 NNW 1009,5 31 0,0
10.07.2020 06:00:00 10,9 9,8 3 2 9 5 NNW 1009,5 38 0,0
10.07.2020 05:00:00 8,9 8,2 5 3 11 6 NW 1009,6 16 0,0
10.07.2020 04:00:00 9,5 8,6 4 2 9 5 WNW 1009,8 20 0,0
10.07.2020 03:00:00 9,8 8,7 3 2 6 4 WNW 1010,1 27 0,0
10.07.2020 02:00:00 10,0 8,9 3 2 7 4 NW 1010,5 28 0,0
10.07.2020 01:00:00 11,2 10,1 3 1 6 3 NW 1010,7 31 0,1
10.07.2020 00:00:00 11,4 10,1 3 2 6 3 NW 1010,8 20 0,2
09.07.2020 23:00:00 11,8 10,7 0 0 5 3 N 1010,7 34 0,1
09.07.2020 22:00:00 12,9 9,2 3 2 5 3 SSE 1010,7 50 0,3
09.07.2020 21:00:00 12,9 10,4 0 0 5 3 N 1011,1 43 0,1
09.07.2020 20:00:00 13,6 8,9 4 2 12 6 SSW 1011,1 46 0,1
09.07.2020 19:00:00 13,9 8,7 9 5 18 10 SW 1011,5 50 0,0
09.07.2020 18:00:00 14,3 8,3 13 7 19 11 SSW 1012,1 49 0,0
09.07.2020 17:00:00 14,8 8,7 15 8 25 13 SSW 1012,4 50 0,0
09.07.2020 16:00:00 14,9 9,5 20 11 27 15 SSW 1012,9 50 0,0
09.07.2020 15:00:00 15,8 9,7 21 11 29 16 SSW 1013,1 40 0,0
09.07.2020 14:00:00 15,9 9,3 24 13 31 17 S 1013,4 38 0,0
09.07.2020 13:00:00 16,7 9,6 23 12 32 17 SSW 1013,6 42 0,0
09.07.2020 12:00:00 16,6 8,8 21 11 31 17 SSW 1013,7 30 0,0
09.07.2020 11:00:00 16,7 7,7 17 9 25 14 SSW 1013,7 42 0,0
09.07.2020 10:00:00 16,1 7,8 12 7 25 14 WSW 1014,1 35 0,0
09.07.2020 09:00:00 15,6 8,6 10 5 21 11 WSW 1014,3 40 0,0
09.07.2020 08:00:00 13,7 10,1 8 4 12 7 WSW 1014,3 37 0,0
09.07.2020 07:00:00 11,6 9,5 4 2 8 5 W 1014,1 34 0,0
09.07.2020 06:00:00 10,3 9,1 4 2 6 3 W 1014,0 45 0,0
09.07.2020 05:00:00 7,9 6,9 5 3 7 4 W 1013,8 49 0,0
09.07.2020 04:00:00 8,0 6,8 2 1 8 5 W 1013,7 50 0,0
09.07.2020 03:00:00 8,7 7,3 5 3 10 5 W 1013,5 50 0,0
09.07.2020 02:00:00 9,5 7,6 6 4 11 6 W 1013,6 50 0,0
09.07.2020 01:00:00 8,8 7,2 4 2 9 5 W 1013,7 50 0,0
09.07.2020 00:00:00 10,0 7,4 3 2 10 5 WNW 1013,5 50 0,0
08.07.2020 23:00:00 10,3 7,7 5 3 7 4 W 1013,3 50 0,0
08.07.2020 22:00:00 10,6 7,7 3 1 9 5 W 1013,0 50 0,0
08.07.2020 21:00:00 13,3 7,9 4 2 18 10 W 1012,5 50 0,0
08.07.2020 20:00:00 15,3 6,3 11 6 27 15 W 1011,9 50 0,0
08.07.2020 19:00:00 17,3 7,3 18 10 34 19 W 1011,4 38 0,0
08.07.2020 18:00:00 15,7 7,7 9 5 29 15 W 1011,4 50 0,0
08.07.2020 17:00:00 17,0 8,8 17 9 35 19 WSW 1011,4 42 0,0
08.07.2020 16:00:00 17,0 7,6 16 8 36 19 W 1011,2 44 0,0
08.07.2020 15:00:00 16,6 6,7 15 8 30 16 W 1010,9 44 0,0
08.07.2020 14:00:00 16,4 7,1 13 7 31 17 W 1010,9 43 0,0
08.07.2020 13:00:00 15,1 7,1 16 9 29 16 W 1010,7 49 0,0
08.07.2020 12:00:00 15,5 7,8 14 8 33 18 W 1010,5 46 0,0
08.07.2020 11:00:00 14,9 7,1 15 8 32 17 W 1010,2 38 0,0
08.07.2020 10:00:00 14,3 6,9 14 8 29 15 W 1010,0 44 0,0
08.07.2020 09:00:00 14,4 7,9 16 9 31 17 W 1009,8 36 0,0
08.07.2020 08:00:00 13,3 8,8 14 7 25 13 W 1009,8 43 0,0
08.07.2020 07:00:00 11,9 9,1 13 7 22 12 WSW 1009,9 38 0,0
08.07.2020 06:00:00 9,8 8,1 7 4 13 7 WSW 1010,1 35 0,0
08.07.2020 05:00:00 8,6 7,4 8 5 16 8 W 1010,0 38 0,0
08.07.2020 04:00:00 8,6 7,4 7 4 12 7 W 1010,1 39 0,0
08.07.2020 03:00:00 9,2 8,1 7 4 14 8 W 1010,3 36 0,0
08.07.2020 02:00:00 9,1 8,3 8 4 13 7 W 1010,4 27 0,0
08.07.2020 01:00:00 9,9 9,0 7 4 14 8 W 1010,5 33 0,0
08.07.2020 00:00:00 10,7 9,5 9 5 17 9 W 1010,6 42 0,0
07.07.2020 23:00:00 11,5 10,2 10 5 20 11 WSW 1010,7 40 0,0
07.07.2020 22:00:00 12,1 9,8 12 7 29 15 WSW 1010,8 48 0,0
07.07.2020 21:00:00 12,3 10,2 13 7 36 19 WSW 1011,1 23 0,2
07.07.2020 20:00:00 12,7 10,6 24 13 46 25 WSW 1011,6 18 0,2
07.07.2020 19:00:00 13,7 10,7 19 10 28 15 WSW 1011,8 42 0,1
07.07.2020 18:00:00 12,2 10,6 19 11 63 34 WSW 1012,7 11 1,7
07.07.2020 17:00:00 17,2 9,5 32 18 60 33 WSW 1012,4 26 0,0
07.07.2020 16:00:00 16,8 8,0 31 17 51 28 WSW 1012,7 32 0,0
07.07.2020 15:00:00 17,0 9,4 29 15 52 28 WSW 1013,0 36 0,0
07.07.2020 14:00:00 17,2 8,9 30 16 46 25 WSW 1012,8 38 0,0
07.07.2020 13:00:00 16,2 8,7 15 8 34 19 W 1013,0 44 0,0
07.07.2020 12:00:00 17,3 7,9 18 10 35 19 W 1012,9 41 0,0
07.07.2020 11:00:00 15,9 7,9 18 10 37 20 W 1012,8 42 0,0
07.07.2020 10:00:00 16,3 9,2 16 9 37 20 W 1012,3 28 0,0
07.07.2020 09:00:00 15,1 9,5 17 9 35 19 W 1012,2 38 0,0
07.07.2020 08:00:00 14,8 8,1 16 8 34 19 W 1011,7 25 0,0
07.07.2020 07:00:00 13,5 7,9 14 7 35 19 W 1011,3 25 0,0
07.07.2020 06:00:00 11,7 7,8 6 4 20 11 WSW 1010,9 31 0,0
07.07.2020 05:00:00 11,1 7,8 10 5 19 10 WSW 1010,4 28 0,0
07.07.2020 04:00:00 11,0 8,0 11 6 22 12 WSW 1009,9 27 0,1
07.07.2020 03:00:00 11,4 9,0 11 6 28 15 W 1009,4 38 0,0
07.07.2020 02:00:00 11,6 8,6 13 7 25 14 W 1008,8 30 0,0
07.07.2020 01:00:00 11,5 8,0 12 7 27 14 W 1008,3 23 0,0
07.07.2020 00:00:00 12,3 8,0 16 9 45 25 W 1007,5 23 0,0
06.07.2020 23:00:00 13,6 9,0 21 11 39 21 W 1006,6 23 0,0
06.07.2020 22:00:00 13,9 9,3 21 11 48 26 WSW 1006,2 29 0,0
06.07.2020 21:00:00 13,9 10,5 21 11 40 22 WSW 1005,4 36 0,0
06.07.2020 20:00:00 14,4 11,4 24 13 46 25 WSW 1004,8 38 0,0
06.07.2020 19:00:00 14,4 11,7 27 15 52 28 WSW 1004,6 7 0,3
06.07.2020 18:00:00 15,3 11,7 28 15 65 35 WSW 1004,1 35 0,5
06.07.2020 17:00:00 15,7 10,5 34 19 66 35 WSW 1003,7 17 0,0
06.07.2020 16:00:00 17,6 10,7 38 21 65 35 WSW 1003,0 25 0,0
06.07.2020 15:00:00 17,6 9,5 44 24 71 38 WSW 1002,9 30 0,0
06.07.2020 14:00:00 17,6 10,5 40 22 64 34 WSW 1002,5 26 0,0
06.07.2020 13:00:00 17,4 10,0 41 22 64 35 WSW 1002,2 33 0,0
06.07.2020 12:00:00 17,0 9,9 39 21 63 34 WSW 1001,9 42 0,0
06.07.2020 11:00:00 16,7 10,0 44 24 61 33 WSW 1001,8 28 0,0
06.07.2020 10:00:00 16,5 10,4 33 18 59 32 WSW 1001,6 31 0,0
06.07.2020 09:00:00 15,9 10,6 35 19 51 28 WSW 1001,8 28 0,0
06.07.2020 08:00:00 13,5 10,5 26 14 65 35 SW 1002,0 44 0,9
06.07.2020 07:00:00 16,3 10,2 24 13 41 22 SW 1001,6 32 0,0
06.07.2020 06:00:00 14,8 9,4 22 12 34 18 SW 1002,0 34 0,0
06.07.2020 05:00:00 13,5 9,4 22 12 37 20 WSW 1002,2 33 0,0
06.07.2020 04:00:00 14,0 10,0 24 13 38 20 WSW 1001,9 28 0,0
06.07.2020 03:00:00 14,1 10,5 21 12 40 22 WSW 1002,6 32 0,0
06.07.2020 02:00:00 13,9 9,9 24 13 41 22 WSW 1002,6 31 0,0
06.07.2020 01:00:00 14,5 10,3 24 13 39 21 WSW 1002,9 35 0,0
06.07.2020 00:00:00 14,7 10,9 22 12 37 20 WSW 1002,9 27 0,0
05.07.2020 23:00:00 15,2 10,6 25 13 45 24 WSW 1002,9 26 0,0
05.07.2020 22:00:00 16,1 10,8 31 17 51 27 WSW 1002,9 30 0,0
05.07.2020 21:00:00 16,8 11,1 31 17 59 32 WSW 1002,4 29 0,0
05.07.2020 20:00:00 17,9 12,4 31 17 59 32 WSW 1002,0 30 0,0
05.07.2020 19:00:00 19,1 13,5 36 20 64 34 WSW 1002,0 32 0,0
05.07.2020 18:00:00 19,3 14,5 37 20 64 34 WSW 1001,9 30 0,0
05.07.2020 17:00:00 19,4 16,2 39 21 66 36 WSW 1001,7 32 0,5
05.07.2020 16:00:00 19,0 16,2 42 23 68 37 SW 1001,7 24 0,0

tt = temperature
td = dewpoint
ff = wind speed
fx = gusts
dd = wind direction
ppp = reduced air pressure
vv = visibility
rr = precipitation

Next stations